Weather History for Fort Campbell, KY

Change the Weather History Date:

Saturday, January 19, 2013

  Actual Average Record
Temperature  
Mean Temperature 45 °F -  
Max Temperature 56 °F 43 °F 62 °F (1999)
Min Temperature 34 °F 25 °F 12 °F (2003)
Degree Days  
Heating Degree Days 20    
Moisture  
Dew Point 27 °F    
Average Humidity 49    
Maximum Humidity 72    
Minimum Humidity 29    
Precipitation  
Precipitation 0.00 in - - ()
Sea Level Pressure  
Sea Level Pressure 30.22 in    
Wind  
Wind Speed 12 mph (SSW)    
Max Wind Speed 23 mph    
Max Gust Speed 29 mph    
Visibility 10 miles    
Events      
Averages and records for this station are not official NWS values.
T = Trace of Precipitation, MM = Missing Value Source: NWS Daily Summary

Daily Weather History Graph

Daily Weather History Graph

Search for Another Location

Airport:

Trip Planner

Search our weather history database for the weather conditions in past years. The results will help you decide how hot, cold, wet, or windy it might be!

Date:

Astronomy

Jan. 19, 2013 Rise Set
Actual Time 6:59 AM CST 5:02 PM CST
Civil Twilight 6:31 AM CST 5:30 PM CST
Nautical Twilight 6:00 AM CST 6:01 PM CST
Astronomical Twilight 5:29 AM CST 6:32 PM CST
Moon 11:26 AM CST (1/19) 12:36 AM CST (1/19)
Length of Visible Light 10h 58m
Length of Day
10h 02m
First Quarter, 57% of the Moon is Illuminated
Jan 19
First Quarter
Jan 26
Full
Feb 3
Last Quarter
Feb 10
New
Feb 17
First Quarter

Hourly Weather History & Observations

Time (CST) Temp. Windchill Dew Point Humidity Pressure Visibility Wind Dir Wind Speed Gust Speed Precip Events Conditions
12:55 AM 38.1 °F 31.7 °F 24.6 °F 58% 30.35 in 10.0 mi South 9.2 mph - N/A   Clear
1:55 AM 37.8 °F 31.8 °F 25.2 °F 60% 30.34 in 10.0 mi South 8.1 mph - N/A   Clear
2:55 AM 37.8 °F 30.7 °F 25.3 °F 61% 30.33 in 10.0 mi South 10.4 mph - N/A   Clear
3:55 AM 37.6 °F 30.5 °F 25.7 °F 62% 30.31 in 10.0 mi South 10.4 mph - N/A   Clear
4:55 AM 37.8 °F 30.2 °F 26.2 °F 63% 30.30 in 10.0 mi South 11.5 mph - N/A   Clear
5:55 AM 37.6 °F 30.5 °F 26.6 °F 65% 30.30 in 10.0 mi South 10.4 mph - N/A   Clear
6:55 AM 34.7 °F 29.6 °F 26.4 °F 72% 30.31 in 10.0 mi South 5.8 mph - N/A   Clear
7:55 AM 40.1 °F 33.6 °F 28.2 °F 63% 30.31 in 10.0 mi South 10.4 mph - N/A   Clear
8:55 AM 45.5 °F 38.9 °F 29.1 °F 53% 30.31 in 10.0 mi SSW 15.0 mph - N/A   Clear
9:55 AM 49.3 °F - 29.3 °F 46% 30.30 in 10.0 mi SSW 17.3 mph - N/A   Clear
10:55 AM 52.9 °F - 28.9 °F 40% 30.27 in 10.0 mi SSW 19.6 mph - N/A   Clear
11:55 AM 55.0 °F - 27.0 °F 34% 30.22 in 10.0 mi SW 23.0 mph 28.8 mph N/A   Clear
12:55 PM 56.5 °F - 26.1 °F 31% 30.18 in 10.0 mi SSW 17.3 mph 25.3 mph N/A   Clear
1:55 PM 56.3 °F - 26.6 °F 32% 30.17 in 10.0 mi SSW 20.7 mph 26.5 mph N/A   Clear
2:55 PM 56.5 °F - 27.0 °F 32% 30.14 in 10.0 mi SSW 16.1 mph 24.2 mph N/A   Clear
3:55 PM 56.3 °F - 24.6 °F 29% 30.13 in 10.0 mi SSW 19.6 mph 25.3 mph N/A   Clear
4:55 PM 53.8 °F - 25.7 °F 34% 30.12 in 10.0 mi South 15.0 mph - N/A   Clear
5:55 PM 51.8 °F - 27.9 °F 40% 30.12 in 10.0 mi South 10.4 mph - N/A   Clear
6:55 PM 50.4 °F - 28.9 °F 44% 30.11 in 10.0 mi SSW 18.4 mph - N/A   Clear
7:55 PM 48.0 °F - 30.0 °F 50% 30.14 in 10.0 mi SSW 9.2 mph - N/A   Clear
8:55 PM 46.4 °F 41.1 °F 30.7 °F 54% 30.15 in 10.0 mi SW 11.5 mph - N/A   Clear
9:55 PM 46.6 °F - 29.8 °F 52% 30.15 in 10.0 mi SW 12.7 mph - N/A   Clear
10:55 PM 46.2 °F 40.1 °F 28.9 °F 51% 30.15 in 10.0 mi SW 13.8 mph - N/A   Clear
11:55 PM 45.1 °F 38.8 °F 28.9 °F 53% 30.14 in 10.0 mi SW 13.8 mph - N/A   Clear